Time,TemperatureF,DewpointF,PressureIn,WindDirection,WindDirectionDegrees,WindSpeedMPH,WindSpeedGustMPH,Humidity,HourlyPrecipIn,Conditions,Clouds,dailyrainin,SolarRadiationWatts/m^2,SoftwareType,DateUTC
2013-12-08 00:13:00,45.0,38.0,-100.00,ENE,64,9.0,18.0,77,0.00,,,0.26,0.000000,,2013-12-08 05:13:00,
2013-12-08 00:23:00,45.0,38.0,-100.00,ENE,64,9.0,18.0,77,0.00,,,0.26,0.000000,,2013-12-08 05:23:00,
2013-12-08 00:34:00,45.0,38.0,-100.00,ENE,64,9.0,18.0,77,0.00,,,0.26,0.000000,,2013-12-08 05:34:00,
2013-12-08 00:40:00,44.0,38.0,-100.00,NE,50,5.0,16.0,78,0.00,,,0.26,0.000000,,2013-12-08 05:40:00,
2013-12-08 01:12:00,44.0,38.0,-100.00,NE,50,5.0,16.0,78,0.00,,,0.26,0.000000,,2013-12-08 06:12:00,
2013-12-08 01:23:00,44.0,38.0,-100.00,NE,50,5.0,16.0,78,0.00,,,0.26,0.000000,,2013-12-08 06:23:00,
2013-12-08 01:32:00,44.0,38.0,-100.00,NE,50,5.0,16.0,78,0.00,,,0.26,0.000000,,2013-12-08 06:32:00,
2013-12-08 01:40:00,44.0,37.0,-100.00,ENE,61,9.0,18.0,77,0.00,,,0.26,0.000000,,2013-12-08 06:40:00,
2013-12-08 02:12:00,44.0,37.0,-100.00,ENE,61,9.0,18.0,77,0.00,,,0.26,0.000000,,2013-12-08 07:12:00,
2013-12-08 02:22:00,44.0,37.0,-100.00,ENE,61,9.0,18.0,77,0.00,,,0.26,0.000000,,2013-12-08 07:22:00,
2013-12-08 02:32:00,44.0,37.0,-100.00,ENE,61,9.0,18.0,77,0.00,,,0.26,0.000000,,2013-12-08 07:32:00,
2013-12-08 02:40:00,43.0,37.0,-100.00,ENE,68,7.0,15.0,78,0.00,,,0.26,0.000000,,2013-12-08 07:40:00,
2013-12-08 03:12:00,43.0,37.0,-100.00,ENE,68,7.0,15.0,78,0.00,,,0.26,0.000000,,2013-12-08 08:12:00,
2013-12-08 03:22:00,43.0,37.0,-100.00,ENE,68,7.0,15.0,78,0.00,,,0.26,0.000000,,2013-12-08 08:22:00,
2013-12-08 03:32:00,43.0,37.0,-100.00,ENE,68,7.0,15.0,78,0.00,,,0.26,0.000000,,2013-12-08 08:32:00,
2013-12-08 03:40:00,43.0,37.0,-100.00,ENE,61,6.0,15.0,78,0.00,,,0.26,0.000000,,2013-12-08 08:40:00,
2013-12-08 04:11:00,43.0,37.0,-100.00,ENE,61,6.0,15.0,78,0.00,,,0.26,0.000000,,2013-12-08 09:11:00,
2013-12-08 04:22:00,43.0,37.0,-100.00,ENE,61,6.0,15.0,78,0.00,,,0.26,0.000000,,2013-12-08 09:22:00,
2013-12-08 04:33:00,43.0,37.0,-100.00,ENE,61,6.0,15.0,78,0.00,,,0.26,0.000000,,2013-12-08 09:33:00,
2013-12-08 04:40:00,42.0,36.0,-100.00,ENE,72,8.0,17.0,80,0.00,,,0.26,0.000000,,2013-12-08 09:40:00,
2013-12-08 05:12:00,42.0,36.0,-100.00,ENE,72,8.0,17.0,80,0.00,,,0.26,0.000000,,2013-12-08 10:12:00,
2013-12-08 05:23:00,42.0,36.0,-100.00,ENE,72,8.0,17.0,80,0.00,,,0.26,0.000000,,2013-12-08 10:23:00,
2013-12-08 05:33:00,42.0,36.0,-100.00,ENE,72,8.0,17.0,80,0.00,,,0.26,0.000000,,2013-12-08 10:33:00,
2013-12-08 05:40:00,40.0,37.0,-100.00,NE,46,6.0,17.0,88,0.01,,,0.27,0.000000,,2013-12-08 10:40:00,
2013-12-08 06:12:00,40.0,37.0,-100.00,NE,46,6.0,17.0,88,0.01,,,0.27,0.000000,,2013-12-08 11:12:00,
2013-12-08 06:22:00,40.0,37.0,-100.00,NE,46,6.0,17.0,88,0.01,,,0.27,0.000000,,2013-12-08 11:22:00,
2013-12-08 06:33:00,40.0,37.0,-100.00,NE,46,6.0,17.0,88,0.01,,,0.27,0.000000,,2013-12-08 11:33:00,
2013-12-08 06:40:00,40.0,38.0,-100.00,NE,50,6.0,12.0,94,0.11,,,0.38,0.000000,,2013-12-08 11:40:00,
2013-12-08 07:12:00,40.0,38.0,-100.00,NE,50,6.0,12.0,94,0.11,,,0.38,0.000000,,2013-12-08 12:12:00,
2013-12-08 07:22:00,40.0,38.0,-100.00,NE,50,6.0,12.0,94,0.11,,,0.38,0.000000,,2013-12-08 12:22:00,
2013-12-08 07:32:00,40.0,38.0,-100.00,NE,50,6.0,12.0,94,0.11,,,0.38,0.000000,,2013-12-08 12:32:00,
2013-12-08 07:40:00,39.0,37.0,-100.00,ENE,58,7.0,12.0,94,0.00,,,0.24,2.000000,,2013-12-08 12:40:00,
2013-12-08 08:11:00,39.0,37.0,-100.00,ENE,58,7.0,12.0,94,0.00,,,0.24,2.000000,,2013-12-08 13:11:00,
2013-12-08 08:22:00,39.0,37.0,-100.00,ENE,58,7.0,12.0,94,0.00,,,0.24,2.000000,,2013-12-08 13:22:00,
2013-12-08 08:32:00,39.0,37.0,-100.00,ENE,58,7.0,12.0,94,0.00,,,0.24,2.000000,,2013-12-08 13:32:00,
2013-12-08 08:40:00,39.0,37.0,-100.00,ENE,65,7.0,15.0,94,0.00,,,0.17,17.000000,,2013-12-08 13:40:00,
2013-12-08 09:12:00,39.0,37.0,-100.00,ENE,65,7.0,15.0,94,0.00,,,0.17,17.000000,,2013-12-08 14:12:00,
2013-12-08 09:23:00,39.0,37.0,-100.00,ENE,65,7.0,15.0,94,0.00,,,0.17,17.000000,,2013-12-08 14:23:00,
2013-12-08 09:32:00,39.0,37.0,-100.00,ENE,65,7.0,15.0,94,0.00,,,0.17,17.000000,,2013-12-08 14:32:00,
2013-12-08 09:40:00,39.0,37.0,-100.00,NE,55,7.0,13.0,94,0.01,,,0.16,20.000000,,2013-12-08 14:40:00,
2013-12-08 10:12:00,39.0,37.0,-100.00,NE,55,7.0,13.0,94,0.01,,,0.16,20.000000,,2013-12-08 15:12:00,
2013-12-08 10:22:00,39.0,37.0,-100.00,NE,55,7.0,13.0,94,0.01,,,0.16,20.000000,,2013-12-08 15:22:00,
2013-12-08 10:33:00,39.0,37.0,-100.00,NE,55,7.0,13.0,94,0.01,,,0.16,20.000000,,2013-12-08 15:33:00,
2013-12-08 10:40:00,39.0,38.0,-100.00,ENE,58,5.0,13.0,95,0.03,,,0.17,36.000000,,2013-12-08 15:40:00,
2013-12-08 11:13:00,39.0,38.0,-100.00,ENE,58,5.0,13.0,95,0.03,,,0.17,36.000000,,2013-12-08 16:13:00,
2013-12-08 11:23:00,39.0,38.0,-100.00,ENE,58,5.0,13.0,95,0.03,,,0.17,36.000000,,2013-12-08 16:23:00,
2013-12-08 11:33:00,39.0,38.0,-100.00,ENE,58,5.0,13.0,95,0.03,,,0.17,36.000000,,2013-12-08 16:33:00,
2013-12-08 11:40:00,38.0,36.0,-100.00,ENE,63,6.0,14.0,93,0.01,,,0.18,64.000000,,2013-12-08 16:40:00,
2013-12-08 12:12:00,38.0,36.0,-100.00,ENE,63,6.0,14.0,93,0.01,,,0.18,64.000000,,2013-12-08 17:12:00,
2013-12-08 12:22:00,38.0,36.0,-100.00,ENE,63,6.0,14.0,93,0.01,,,0.18,64.000000,,2013-12-08 17:22:00,
2013-12-08 12:33:00,38.0,36.0,-100.00,ENE,63,6.0,14.0,93,0.01,,,0.18,64.000000,,2013-12-08 17:33:00,
2013-12-08 12:40:00,38.0,36.0,-100.00,NE,53,7.0,17.0,94,0.00,,,0.18,107.000000,,2013-12-08 17:40:00,
2013-12-08 13:12:00,38.0,36.0,-100.00,NE,53,7.0,17.0,94,0.00,,,0.18,107.000000,,2013-12-08 18:12:00,
2013-12-08 13:22:00,38.0,36.0,-100.00,NE,53,7.0,17.0,94,0.00,,,0.18,107.000000,,2013-12-08 18:22:00,
2013-12-08 13:32:00,38.0,36.0,-100.00,NE,53,7.0,17.0,94,0.00,,,0.18,107.000000,,2013-12-08 18:32:00,
2013-12-08 13:40:00,38.0,37.0,-100.00,NE,51,5.0,14.0,95,0.00,,,0.18,31.000000,,2013-12-08 18:40:00,
2013-12-08 14:12:00,38.0,37.0,-100.00,NE,51,5.0,14.0,95,0.00,,,0.18,31.000000,,2013-12-08 19:12:00,
2013-12-08 14:22:00,38.0,37.0,-100.00,NE,51,5.0,14.0,95,0.00,,,0.18,31.000000,,2013-12-08 19:22:00,
2013-12-08 14:32:00,38.0,37.0,-100.00,NE,51,5.0,14.0,95,0.00,,,0.18,31.000000,,2013-12-08 19:32:00,
2013-12-08 14:40:00,38.0,37.0,-100.00,NE,39,7.0,15.0,95,0.02,,,0.20,36.000000,,2013-12-08 19:40:00,
2013-12-08 15:11:00,38.0,37.0,-100.00,NE,39,7.0,15.0,95,0.02,,,0.20,36.000000,,2013-12-08 20:11:00,
2013-12-08 15:22:00,38.0,37.0,-100.00,NE,39,7.0,15.0,95,0.02,,,0.20,36.000000,,2013-12-08 20:22:00,
2013-12-08 15:32:00,38.0,37.0,-100.00,NE,39,7.0,15.0,95,0.02,,,0.20,36.000000,,2013-12-08 20:32:00,
2013-12-08 15:40:00,38.0,36.0,-100.00,NE,55,6.0,13.0,94,0.00,,,0.20,33.000000,,2013-12-08 20:40:00,
2013-12-08 16:12:00,38.0,36.0,-100.00,NE,55,6.0,13.0,94,0.00,,,0.20,33.000000,,2013-12-08 21:12:00,
2013-12-08 16:22:00,38.0,36.0,-100.00,NE,55,6.0,13.0,94,0.00,,,0.20,33.000000,,2013-12-08 21:22:00,
2013-12-08 16:33:00,38.0,36.0,-100.00,NE,55,6.0,13.0,94,0.00,,,0.20,33.000000,,2013-12-08 21:33:00,
2013-12-08 16:40:00,37.0,35.0,-100.00,NE,47,7.0,15.0,94,0.00,,,0.20,22.000000,,2013-12-08 21:40:00,
2013-12-08 17:13:00,37.0,35.0,-100.00,NE,47,7.0,15.0,94,0.00,,,0.20,22.000000,,2013-12-08 22:13:00,
2013-12-08 17:23:00,37.0,35.0,-100.00,NE,47,7.0,15.0,94,0.00,,,0.20,22.000000,,2013-12-08 22:23:00,
2013-12-08 17:33:00,37.0,35.0,-100.00,NE,47,7.0,15.0,94,0.00,,,0.20,22.000000,,2013-12-08 22:33:00,
2013-12-08 17:40:00,37.0,36.0,-100.00,NE,46,4.0,12.0,95,0.00,,,0.20,2.000000,,2013-12-08 22:40:00,
2013-12-08 18:12:00,37.0,36.0,-100.00,NE,46,4.0,12.0,95,0.00,,,0.20,2.000000,,2013-12-08 23:12:00,
2013-12-08 18:22:00,37.0,36.0,-100.00,NE,46,4.0,12.0,95,0.00,,,0.20,2.000000,,2013-12-08 23:22:00,
2013-12-08 18:33:00,37.0,36.0,-100.00,NE,46,4.0,12.0,95,0.00,,,0.20,2.000000,,2013-12-08 23:33:00,
2013-12-08 18:40:00,37.0,36.0,-100.00,NNE,32,5.0,11.0,96,0.00,,,0.20,0.000000,,2013-12-08 23:40:00,
2013-12-08 19:12:00,37.0,36.0,-100.00,NNE,32,5.0,11.0,96,0.00,,,0.20,0.000000,,2013-12-09 00:12:00,
2013-12-08 19:22:00,37.0,36.0,-100.00,NNE,32,5.0,11.0,96,0.00,,,0.20,0.000000,,2013-12-09 00:22:00,
2013-12-08 19:32:00,37.0,36.0,-100.00,NNE,32,5.0,11.0,96,0.00,,,0.20,0.000000,,2013-12-09 00:32:00,
2013-12-08 19:40:00,37.0,36.0,-100.00,NE,56,5.0,10.0,96,0.00,,,0.20,0.000000,,2013-12-09 00:40:00,
2013-12-08 20:11:00,37.0,36.0,-100.00,NE,56,5.0,10.0,96,0.00,,,0.20,0.000000,,2013-12-09 01:11:00,
2013-12-08 20:22:00,37.0,36.0,-100.00,NE,56,5.0,10.0,96,0.00,,,0.20,0.000000,,2013-12-09 01:22:00,
2013-12-08 20:32:00,37.0,36.0,-100.00,NE,56,5.0,10.0,96,0.00,,,0.20,0.000000,,2013-12-09 01:32:00,
2013-12-08 20:40:00,37.0,36.0,-100.00,NE,51,3.0,10.0,97,0.00,,,0.20,0.000000,,2013-12-09 01:40:00,
2013-12-08 21:11:00,37.0,36.0,-100.00,NE,51,3.0,10.0,97,0.00,,,0.20,0.000000,,2013-12-09 02:11:00,
2013-12-08 21:22:00,37.0,36.0,-100.00,NE,51,3.0,10.0,97,0.00,,,0.20,0.000000,,2013-12-09 02:22:00,
2013-12-08 21:32:00,37.0,36.0,-100.00,NE,51,3.0,10.0,97,0.00,,,0.20,0.000000,,2013-12-09 02:32:00,
2013-12-08 21:40:00,37.0,36.0,-100.00,NNE,24,4.0,7.0,97,0.00,,,0.20,0.000000,,2013-12-09 02:40:00,
2013-12-08 22:12:00,37.0,36.0,-100.00,NNE,24,4.0,7.0,97,0.00,,,0.20,0.000000,,2013-12-09 03:12:00,
2013-12-08 22:22:00,37.0,36.0,-100.00,NNE,24,4.0,7.0,97,0.00,,,0.20,0.000000,,2013-12-09 03:22:00,
2013-12-08 22:33:00,37.0,36.0,-100.00,NNE,24,4.0,7.0,97,0.00,,,0.20,0.000000,,2013-12-09 03:33:00,
2013-12-08 22:40:00,38.0,37.0,-100.00,NNE,33,3.0,7.0,97,0.00,,,0.19,0.000000,,2013-12-09 03:40:00,
2013-12-08 23:13:00,38.0,37.0,-100.00,NNE,33,3.0,7.0,97,0.00,,,0.19,0.000000,,2013-12-09 04:13:00,
2013-12-08 23:23:00,38.0,37.0,-100.00,NNE,33,3.0,7.0,97,0.00,,,0.19,0.000000,,2013-12-09 04:23:00,
2013-12-08 23:33:00,38.0,37.0,-100.00,NNE,33,3.0,7.0,97,0.00,,,0.19,0.000000,,2013-12-09 04:33:00,
2013-12-08 23:40:00,37.0,36.0,-100.00,NNE,16,4.0,8.0,97,0.00,,,0.19,0.000000,,2013-12-09 04:40:00,